Location: Audenaeken
(50.7798°N, 4.1978°E)
Time: 07:59:24
(UTC+00:00)

Daily predictions for brighter satellites

Satellite Brightness Start Highest point End
(mag) Time Altitude Azimuth Time Altitude Azimuth Time Altitude Azimuth
In-Cosmos 22 4.1 16:37:16 10° S 16:42:37 78° E 16:47:56 10° NNE
Cosmos 1709 Rocket 4.1 16:37:54 10° S 16:44:01 86° W 16:50:12 10° N
Cosmos 1300 3.8 16:41:45 10° NNE 16:44:57 24° ENE 16:48:07 10° SE
Cosmos 1606 Rocket 4.0 16:42:02 10° NNW 16:46:23 67° W 16:50:39 10° S
CZ-4B R/B 2.5 16:45:10 10° N 16:48:05 39° WNW 16:50:58 10° SW
Meteor 2-5 Rocket 3.9 16:42:48 10° SSE 16:48:07 50° E 16:53:30 10° NNE
Okean-O 3.2 16:44:45 10° SE 16:48:48 37° ENE 16:52:54 10° N
Cosmos 1726 2.7 16:45:18 10° NNW 16:48:55 62° W 16:52:30 10° S
Cosmos 1726 Rocket 3.8 16:44:46 10° NNW 16:49:09 77° W 16:53:29 10° S
Cosmos 1953 4.2 16:47:33 10° NNW 16:51:17 36° W 16:55:00 10° SSW
SL-16 R/B 3.6 16:49:09 10° N 16:53:06 19° NNE 16:57:02 10° ENE
Okean O Rocket 2.8 16:48:53 10° S 16:53:10 49° W 16:57:31 10° NNW
Helios 1A Rocket 3.8 16:50:08 10° S 16:54:05 55° WSW 16:58:06 10° NNW
SL-14 R/B 4.4 16:52:36 10° SE 16:55:56 26° E 16:59:16 10° NNE
KORONAS-FOTON 3.8 16:52:39 10° S 16:56:22 58° E 17:00:07 10° NNE
NOSS 0 Rocket 4.2 16:50:49 10° NNW 16:56:52 49° NE 17:02:52 10° ESE
Starlink T 4.5 16:55:47 10° SSW 16:58:01 21° SE 17:00:16 10° E
USA 267 3.3 16:51:58 10° ENE 16:58:32 85° NNW 17:05:06 10° WSW
Starlink N 4.5 16:56:53 10° SSW 16:59:08 21° SE 17:01:25 10° E
Cosmos 1271 Rocket 3.4 16:56:06 10° SSE 16:59:28 33° E 17:02:52 10° NNE
Cosmos 1626 Rocket 4.3 16:56:08 10° SSE 16:59:56 30° E 17:03:44 10° NNE
Starlink Q 4.4 16:58:17 10° SSW 17:00:35 21° SE 17:02:52 10° E
Cosmos 1455 4.2 17:00:37 10° NE 17:01:08 10° ENE 17:01:33 10° ENE
Starlink P 4.4 16:59:28 10° SSW 17:01:48 22° SE 17:04:07 10° E
Cosmos 494 Rocket 4.4 16:57:03 10° NNW 17:01:50 38° NE 17:06:36 10° SE
Cosmos 1833 4.2 16:56:37 10° SSW 17:02:18 79° ESE 17:08:04 10° NNE
ATLAS 5 CENTAUR R/B 1.6 16:58:07 10° SW 17:02:23 83° SE 17:07:15 10° NE
Starlink U 4.4 17:00:41 10° SSW 17:03:01 22° SE 17:05:18 10° E
Starlink B 4.3 17:01:54 10° SSW 17:04:16 23° SE 17:06:31 11° E
Cosmos 2333 4.4 16:59:14 10° NNW 17:05:00 79° WSW 17:10:40 10° SSE
Cosmos 1939 Rocket 4.3 17:02:51 10° ESE 17:05:24 17° ENE 17:07:59 10° NNE
Cosmos 2322 4.1 17:01:07 10° NNW 17:06:46 70° WSW 17:12:22 10° SSE
Starlink D 4.2 17:05:58 10° SSW 17:08:26 25° SE 17:10:34 12° E
Starlink S 4.2 17:07:15 10° SSW 17:09:44 25° SE 17:11:50 12° E
Starlink C 4.2 17:08:30 10° SSW 17:11:00 26° SE 17:13:03 13° E
Cosmos 1626 2.9 17:07:54 10° SSE 17:11:11 31° E 17:14:31 10° NNE
Starlink E 4.1 17:09:48 10° SSW 17:12:19 26° SE 17:14:21 13° E
ATLAS CENTAUR R/B 3.3 17:10:51 10° NNW 17:13:28 15° NNE 17:15:32 11° NE
Starlink J 4.1 17:11:06 10° SSW 17:13:39 27° SE 17:15:37 14° E
Starlink V 4.1 17:12:23 10° SSW 17:14:57 27° SE 17:16:53 14° E
Cosmos 1980 4.0 17:10:23 10° NNW 17:15:51 45° NE 17:21:18 10° SE
Cosmos 1242 Rocket 3.0 17:12:40 10° SSE 17:15:56 38° E 17:19:16 10° NNE
Starlink H 4.0 17:13:42 10° SSW 17:16:17 28° SE 17:18:10 15° E
YAOGAN 6 2.8 17:12:58 10° SSE 17:16:32 48° ENE 17:20:06 10° N
CORIOLIS 4.3 17:11:25 10° SSE 17:16:49 83° WSW 17:22:13 10° NNW
Starlink F 4.0 17:15:01 10° SSW 17:17:37 29° SE 17:19:28 15° E
Cosmos 1607 4.2 17:12:07 10° SSW 17:17:56 48° ESE 17:23:30 12° NE
NOAA 12 4.1 17:13:03 10° SSE 17:18:17 84° ENE 17:23:34 10° NNW
Cosmos 2297 Rocket 3.7 17:15:34 10° SE 17:18:42 15° E 17:20:27 13° ENE
Starlink G 4.0 17:16:20 10° SSW 17:18:57 29° SE 17:20:45 16° E
SMAP 3.6 17:15:27 10° S 17:20:04 64° WSW 17:24:43 10° NNW
Starlink L 3.9 17:17:38 10° SSW 17:20:16 30° SSE 17:22:02 16° E
Cosmos 1898 Rocket 4.5 17:15:19 10° SW 17:20:26 47° WNW 17:25:35 10° NNE
Cosmos 2360 Rocket 4.1 17:15:37 10° NW 17:20:40 34° WSW 17:25:41 10° S
H-2A R/B 3.6 17:17:47 10° S 17:21:32 55° W 17:25:23 10° NNW
Starlink A 3.9 17:18:58 10° SSW 17:21:37 31° SSE 17:23:20 17° E
SJ 16-02 2.8 17:18:25 10° SW 17:22:29 36° WNW 17:26:38 10° N
Cosmos 1689 Rocket 4.3 17:20:23 10° N 17:22:53 25° WNW 17:25:21 10° SW
Starlink R 3.8 17:20:18 10° SSW 17:22:57 31° SSE 17:24:38 18° E
Starlink K 3.8 17:21:36 10° SSW 17:24:17 32° SSE 17:25:55 18° E
Starlink M 3.8 17:22:52 10° SW 17:25:34 33° SSE 17:27:09 19° E
Cosmos 2150 Rocket 3.9 17:22:06 10° SSW 17:27:13 69° ESE 17:32:21 10° NNE
COSMOS 2428 2.9 17:21:40 10° NNW 17:27:27 80° WSW 17:33:11 10° SSE
Cosmos 2219 Rocket 2.4 17:23:33 10° NNW 17:29:15 76° WSW 17:34:54 10° SSE
Cosmos 1937 Rocket 4.3 17:24:40 10° SW 17:29:47 52° WNW 17:35:00 10° NNE
CZ-4 R/B 1.6 17:26:30 10° SE 17:30:22 47° ENE 17:34:20 10° N
Cosmos 2227 Rocket 3.6 17:27:00 10° SE 17:30:32 17° E 17:31:48 16° E
SKYMED 2 4.0 17:27:06 10° NNE 17:31:14 40° E 17:35:20 10° SSE
COSMOS 2487 4.3 17:28:56 10° WSW 17:31:58 28° WNW 17:35:03 10° N
NOAA 11 4.5 17:28:11 10° SE 17:33:22 44° ENE 17:38:33 10° N
Cosmos 2184 Rocket 4.0 17:30:07 10° S 17:36:19 88° W 17:42:31 10° N
Cosmos 1241 Rocket 4.4 17:34:58 10° NW 17:41:14 79° NE 17:47:28 10° SE
Cosmos 2154 Rocket 3.9 17:37:55 10° S 17:44:09 71° E 17:50:23 10° NNE
Cosmos 1812 Rocket 3.5 17:39:54 10° N 17:44:23 80° E 17:48:52 10° SSE
ATLAS 5 CENTAUR R/B 3.5 17:42:24 10° NW 17:45:36 32° NNE 17:49:39 20° ENE
Cosmos 1125 Rocket 3.5 17:41:18 10° S 17:46:23 58° ESE 17:50:56 13° NNE
USA 116 4.3 17:50:27 26° ESE 17:50:27 26° ESE 17:52:40 10° SSE
YAOGAN 1 2.5 17:50:36 10° SSE 17:54:53 67° ENE 17:59:12 10° N
ARGOS 4.4 17:55:40 21° NE 17:55:40 21° NE 17:59:08 10° N
Envisat 4.0 17:54:02 10° S 17:58:57 50° W 18:03:56 10° NNW
Cosmos 1269 Rocket 3.9 17:54:25 10° NNW 17:59:44 81° ENE 18:05:02 10° SSE
Cosmos 1610 Rocket 4.5 17:54:29 10° S 18:00:37 85° W 18:06:50 10° N
Cosmos-2242 3.0 18:01:05 10° N 18:05:23 54° ENE 18:09:36 10° SSE
CZ-4C R/B 3.4 17:59:41 10° NW 18:06:43 65° SW 18:14:47 10° SSE
NOSS 2-1 (E) 4.3 18:02:09 10° NW 18:07:12 68° NE 18:12:46 16° SE
CSL-04 Debris 4.1 18:02:04 10° SSE 18:07:28 83° ENE 18:12:54 10° NNW
CZ-2D R/B 3.1 18:07:18 10° SSE 18:11:06 71° ENE 18:14:58 10° N
Cosmos 1295 Rocket 4.5 18:05:12 10° S 18:11:33 85° E 18:17:55 10° N
Starlink AQ 2.7 18:10:00 10° WSW 18:12:43 69° S 18:12:43 69° S
Meteor 2-10 Rocket 3.6 18:07:48 10° N 18:13:11 56° ENE 18:18:19 10° SSE
Cosmos 2366 rocket 4.3 18:08:28 10° SSE 18:14:15 43° E 18:20:07 10° NNE
Cosmos 1602 Rocket 3.9 18:09:57 10° SSW 18:14:18 64° WNW 18:18:40 10° N
Starlink AR 3.2 18:11:49 10° WSW 18:13:45 47° SW 18:13:45 47° SW
Starlink AS 2.8 18:12:33 10° WSW 18:15:10 67° SSW 18:15:10 67° SSW
Starlink BA 2.8 18:12:45 10° WSW 18:15:22 67° SSW 18:15:22 67° SSW
Starlink AU 2.8 18:12:58 10° WSW 18:15:35 67° SSW 18:15:35 67° SSW
Starlink AT 2.8 18:13:12 10° WSW 18:15:48 66° SSW 18:15:48 66° SSW
Cosmos 2333 Rocket 4.0 18:10:59 10° NW 18:16:05 34° WSW 18:21:08 10° S
Starlink BB 2.8 18:13:25 10° WSW 18:16:01 66° SSW 18:16:01 66° SSW
Starlink BC 2.9 18:13:38 10° WSW 18:16:14 66° SSW 18:16:14 66° SSW
Starlink BK 2.9 18:13:51 10° WSW 18:16:26 66° SW 18:16:26 66° SW
Starlink AY 2.9 18:14:05 10° WSW 18:16:40 65° SW 18:16:40 65° SW
Starlink AW 2.9 18:14:18 10° WSW 18:16:52 65° SW 18:16:52 65° SW
ATLAS CENTAUR R/B 4.1 18:11:08 10° WSW 18:17:13 76° NNW 18:28:21 22° ENE
Starlink BJ 2.9 18:14:29 10° WSW 18:17:03 65° SW 18:17:03 65° SW
Starlink AV 2.9 18:14:41 10° WSW 18:17:15 64° SW 18:17:15 64° SW
Starlink BD 2.9 18:14:56 10° WSW 18:17:28 64° SW 18:17:28 64° SW
Starlink BE 2.9 18:15:06 10° WSW 18:17:40 65° SW 18:17:40 65° SW
Starlink BM 3.0 18:15:22 10° WSW 18:17:54 64° SW 18:17:54 64° SW
Cosmos 2237 Rocket 2.3 18:12:40 10° NNW 18:18:20 80° WSW 18:23:57 10° SSE
Starlink AX 3.0 18:15:35 10° WSW 18:18:06 63° SW 18:18:06 63° SW
Starlink BH 3.0 18:15:49 10° WSW 18:18:20 63° SW 18:18:20 63° SW
Starlink AZ 3.0 18:16:02 10° WSW 18:18:33 62° SW 18:18:33 62° SW
Starlink BG 3.0 18:16:17 10° WSW 18:18:47 62° SW 18:18:47 62° SW
Starlink BF 3.0 18:16:30 10° WSW 18:18:59 62° SW 18:18:59 62° SW
COSMO-SKYMED 1 2.8 18:15:06 10° N 18:19:28 71° WNW 18:23:46 10° SSW
Starlink BL 3.0 18:16:37 10° WSW 18:19:08 62° SW 18:19:08 62° SW
Starlink AH 3.0 18:16:53 10° WSW 18:19:22 61° SW 18:19:22 61° SW
Starlink AC 3.1 18:17:07 10° WSW 18:19:35 61° SW 18:19:35 61° SW
Starlink X 3.1 18:17:19 10° WSW 18:19:47 60° SW 18:19:47 60° SW
Starlink AE 3.1 18:17:30 10° WSW 18:19:58 61° SW 18:19:58 61° SW
Cosmos 1340 Rocket 4.0 18:16:49 10° NNW 18:20:34 43° W 18:24:20 10° SSW
Starlink Z 3.1 18:17:46 10° WSW 18:20:13 60° SW 18:20:13 60° SW
Starlink AK 3.1 18:18:01 10° WSW 18:20:28 59° SW 18:20:28 59° SW
Starlink AL 3.1 18:18:15 10° WSW 18:20:41 59° SW 18:20:41 59° SW
Starlink AD 3.1 18:18:26 10° WSW 18:20:51 59° SW 18:20:51 59° SW
Cosmos 962 Rocket 4.4 18:15:39 10° S 18:21:46 85° E 18:27:58 10° N
Starlink Y 3.2 18:18:53 10° WSW 18:21:18 58° SW 18:21:18 58° SW
Starlink AG 3.2 18:19:07 10° WSW 18:21:31 57° SW 18:21:31 57° SW
Starlink W 3.2 18:19:15 10° WSW 18:21:40 58° SW 18:21:40 58° SW
Starlink AJ 3.2 18:19:31 10° WSW 18:21:55 57° SW 18:21:55 57° SW
Meteor 1-21 Rocket 4.1 18:17:15 10° S 18:22:47 71° E 18:28:28 10° NNE
Starlink AM 3.2 18:19:56 10° WSW 18:22:19 56° WSW 18:22:19 56° WSW
Starlink AP 3.2 18:20:10 10° WSW 18:22:32 56° WSW 18:22:32 56° WSW
Starlink AA 3.3 18:20:23 10° WSW 18:22:45 55° WSW 18:22:45 55° WSW
Starlink AF 3.3 18:20:35 10° WSW 18:22:57 55° WSW 18:22:57 55° WSW
Starlink AB 3.3 18:20:52 10° WSW 18:23:13 55° WSW 18:23:13 55° WSW
Starlink AN 3.3 18:21:03 10° WSW 18:23:23 54° WSW 18:23:23 54° WSW
ADEOS Rocket 3.4 18:19:51 13° NNE 18:25:16 46° E 18:31:59 10° S
Cosmos 1953 Rocket 3.8 18:21:15 10° SSE 18:25:10 47° ESE 18:25:10 47° ESE
Cosmos 1758 Rocket 3.4 18:26:39 10° S 18:30:59 88° E 18:33:07 29° N
Starlink T 4.0 18:29:53 10° WSW 18:31:53 40° WSW 18:31:53 40° WSW
Starlink N 4.0 18:31:00 10° WSW 18:32:58 39° WSW 18:32:58 39° WSW
Cosmos 1727 Rocket 3.9 18:29:09 10° N 18:35:17 58° ENE 18:41:20 10° SSE
Starlink Q 4.1 18:32:27 10° WSW 18:34:22 37° WSW 18:34:22 37° WSW
Starlink P 4.2 18:33:41 10° WSW 18:35:34 36° WSW 18:35:34 36° WSW
Timation 2 Rocket 4.4 18:30:55 10° SW 18:36:59 61° NW 18:41:40 19° NNE
CSL-04 Rocket 4.2 18:31:58 10° S 18:37:23 61° WSW 18:42:54 10° NNW
Cosmos 1455 2.5 18:33:34 10° N 18:36:37 54° N 18:36:37 54° N
Starlink U 4.3 18:34:55 10° WSW 18:36:45 35° WSW 18:36:45 35° WSW
SL-16 R/B 2.1 18:32:42 10° NNW 18:38:22 65° NE 18:39:50 47° ESE
Starlink B 4.4 18:36:11 10° WSW 18:37:58 34° WSW 18:37:58 34° WSW
Cosmos 1939 Rocket 3.4 18:36:06 10° S 18:39:55 58° W 18:43:51 10° NNW
USA 267 3.6 18:38:38 34° NE 18:41:18 54° N 18:47:37 10° W
Ariane Rocket 2.8 18:37:49 14° SSE 18:42:10 77° ENE 18:47:15 10° NNW
H-2A R/B 2.9 18:46:39 33° NNE 18:46:39 33° NNE 18:49:41 10° N
Cosmos 2219 3.0 18:39:17 10° SSW 18:44:54 85° ESE 18:46:52 43° NNE
Cosmos 2341 Rocket 4.2 18:39:57 10° SSW 18:46:19 73° W 18:52:43 10° N
Cosmos 1626 4.5 18:43:29 10° SW 18:46:31 23° WNW 18:49:34 10° NNW
ATLAS 5 CENTAUR R/B 3.3 18:43:41 10° W 18:47:37 28° NNW 18:49:07 24° N
SL-8 Rocket 4.0 18:45:43 10° S 18:52:03 87° W 18:58:23 10° N
ATLAS CENTAUR R/B 2.9 18:49:32 10° NNW 18:51:45 26° NNW 18:51:45 26° NNW
CZ-2C R/B 4.2 18:58:31 33° NNE 18:58:31 33° NNE 19:01:46 10° N
Cosmos 2251 Rocket 3.4 18:51:13 10° NNW 18:56:25 74° NE 18:56:25 74° NE
Cosmos 1825 Rocket 4.0 18:52:59 10° SSW 18:57:17 58° WNW 18:58:41 39° NNW
Cosmos 2297 Rocket 2.0 18:56:12 10° SSW 19:01:52 82° ESE 19:02:19 75° ENE
CZ-4 R/B 4.1 19:02:38 10° SW 19:05:39 20° W 19:08:43 10° NW
Cosmos 2227 Rocket 2.1 19:08:08 10° SSW 19:13:41 86° SSW 19:13:41 86° SSW
SL-08 R/B 4.4 19:12:05 10° S 19:18:22 85° E 19:24:48 10° N
Cosmos 2218 Rocket 4.3 19:14:48 10° SSW 19:21:06 67° WNW 19:27:30 10° N
ARGOS 4.2 19:37:09 36° NNW 19:37:09 36° NNW 19:40:19 10° NNW
ADEOS Rocket 4.2 20:06:42 20° N 20:10:46 43° WNW 20:17:13 10° SW
SL-16 R/B 4.1 20:17:30 10° NW 20:21:47 25° W 20:21:47 25° W
USA 267 4.2 20:25:59 40° NW 20:25:59 40° NW 20:30:13 10° WNW
H-2A R/B 4.4 20:27:16 17° NW 20:27:16 17° NW 20:28:48 10° NW
Cosmos 2297 Rocket 4.5 20:41:57 10° W 20:44:11 19° WNW 20:44:11 19° WNW
